Regional Weather Roundup
Issued by NWS

Home | Current Version | Previous Version | Graphics & Text | Print | Product List | Glossary On
Versions: 1 2 3 4 5 6 7 8 9 10 11 12 13 14 15 16 17 18 19 20 21 22 23 24 25 26 27 28
000
ASUS45 KTFX 311110
RWRMT
MONTANA REGIONAL WEATHER ROUNDUP
NATIONAL WEATHER SERVICE GREAT FALLS MT
500 AM MDT WED AUG 31 2016

NOTE: "FAIR" INDICATES FEW OR NO CLOUDS BELOW 12000 FEET WITH NO
SIGNIFICANT WEATHER AND/OR OBSTRUCTIONS TO VISIBILITY.

MTZ001>007-043-311200-
WEST OF THE DIVIDE

CITY           SKY/WX    TMP DP  RH WIND       PRES   REMARKS
KALISPELL      CLEAR     55  51  86 N7        29.93R
MISSOULA       CLEAR     60  41  49 CALM      29.97S
BUTTE          CLEAR     50  32  50 CALM      30.14R
MULLAN PASS    CLEAR     59  32  36 NW6       30.12F
DEER LODGE       N/A     54  36  50 W3        30.09S
EUREKA           N/A     55  45  67 N3        29.95
HAMILTON         N/A     54  43  66 E5        30.00R
LIBBY            N/A     55  45  67 CALM      29.95S
PLAINS           N/A     54  44  68 CALM      29.96R
$$

MTZ008-052>055-311200-
SOUTHWEST MONTANA

CITY           SKY/WX    TMP DP  RH WIND       PRES   REMARKS
BOZEMAN        CLOUDY    54  41  61 CALM      30.06R
DILLON         CLOUDY    56  27  32 SW9       30.09R
W YELLOWSTONE  CLOUDY    37  25  60 CALM      30.28R
ENNIS          CLEAR     54  27  35 CALM      30.16S
THREE FORKS      N/A     50  30  46 CALM      30.04S
TWIN BRIDGES     N/A     52  34  50 SE1       30.07R
$$

MTZ009-010-012-014-046-048-049-054-311200-
EAST SLOPES AND CENTRAL MONTANA

CITY           SKY/WX    TMP DP  RH WIND       PRES   REMARKS
CUT BANK       CLEAR     55  48  77 VRB5      29.99S
GREAT FALLS    CLOUDY    59  47  64 CALM      29.98F
MALMSTROM AFB  PTCLDY    62  50  64 E2        29.98F
HELENA         CLEAR     60  40  47 CALM      30.02S
CHOTEAU          N/A     57  48  72 NW3       30.02S
CONRAD           N/A     59  52  77 NE2       30.01R
$$

MTZ011-013-016-021-045-047-050-051-311200-
NORTH CENTRAL MONTANA

CITY           SKY/WX    TMP DP  RH WIND       PRES   REMARKS
HAVRE          CLOUDY    63  57  81 E16       29.95F
LEWISTOWN      CLOUDY    62  42  47 S5        30.04F
N BAR RANCH      N/A     61  45  55 NW7       30.08F
CHINOOK          N/A     63  57  82 E5        29.98S
$$

MTZ017>020-022>027-061-062-311200-
NORTHEAST MONTANA

CITY           SKY/WX    TMP DP  RH WIND       PRES   REMARKS
GLASGOW        PTCLDY    65  55  70 E10       29.99S
JORDAN           N/A     58  54  86 CALM      29.99S
SIDNEY         PTCLDY    64  56  75 E6        30.06F
WOLF POINT     PTCLDY    64  53  67 E9        30.02S
PLENTYWOOD       N/A     64  52  63 E10       30.07F
POPLAR           N/A     64  54  68 E5        30.03S
SCOBEY           N/A     62  46  55 E6        30.05S
$$

MTZ028>42-056>058-311200-
SOUTHCENTRAL AND SOUTHEAST MONTANA

CITY           SKY/WX    TMP DP  RH WIND       PRES   REMARKS
BAKER          CLEAR     61  55  81 E3        30.11S
BILLINGS       CLOUDY    66  44  45 NW5       30.03S
LIVINGSTON     CLOUDY    59  39  47 W3        30.09S
MILES CITY     PTCLDY    70  50  49 SE9       30.01S
EKALAKA          N/A     67  51  56 E3        30.10S
FORSYTH          N/A     77  48  36 S10       29.98S
LAUREL           N/A     63  41  44 CALM      30.02S
ROUNDUP          N/A     59  44  57 S5        29.95S
$$

REGIONAL REPORTS...DAKOTAS

CITY           SKY/WX    TMP DP  RH WIND       PRES   REMARKS
WILLISTON      CLEAR     66  54  65 E8        30.10S
MINOT          PTCLDY    58  53  84 E8        30.18F
DICKINSON      CLEAR     56  54  93 SE10      30.11S
CROSBY           N/A     55  52  88 E8        30.17S
WATFORD CITY     N/A     63  54  72 E8        30.11S
BISMARCK       CLEAR     63  58  83 E10       30.18S
GRAND FORKS    MOCLDY    50  47  89 NW3       30.24R
FARGO          CLEAR     54  53  97 NE5       30.22S
BUFFALO SD       N/A     60  58  92 SE7       30.07S
RAPID CITY     CLEAR     58  54  86 E3        30.17S
$$

REGIONAL REPORTS...WYOMING/IDAHO/WASHINGTON

CITY           SKY/WX    TMP DP  RH WIND       PRES   REMARKS
GILLETTE       CLEAR     62  52  69 S15       30.17F
SHERIDAN       CLEAR     57  40  52 CALM      30.08S
BUFFALO WY     CLEAR     70  42  36 SE12      30.18F
CODY           CLOUDY    57  37  47 CALM      30.15S
YELLOWSTONE LA   N/A     42  33  70 NW3       30.38S
IDAHO FALLS    CLOUDY    48  37  65 NW3       30.08S
SALMON         PTCLDY    61  36  39 CALM      30.00F
BOISE          MOCLDY    65  41  41 SW8       29.86S
SPOKANE        PTCLDY    59  42  53 S8        29.96R
$$

REGIONAL REPORTS...ALBERTA

CITY           SKY/WX    TMP DP  RH WIND       PRES   REMARKS
EDMONTON       LGT RAIN  55  48  76 E7        29.97F
CALGARY        PTCLDY    59  54  82 NW3       29.96F
LETHBRIDGE     CLOUDY    61  54  77 SE13G25   29.94F
MEDICINE HAT   CLOUDY    64  57  77 N7        29.97R
WATERTON GATE    N/A     55  46  71 S6          N/A
CARDSTON         N/A     57  46  67 CALM        N/A
MILK RIVER       N/A     55  48  76 SW1         N/A
ONEFOUR          N/A     64  55  72 NE10        N/A
$$

REGIONAL REPORTS...SASKATCHEWAN

CITY           SKY/WX    TMP DP  RH WIND       PRES   REMARKS
SWIFT CURRENT  CLEAR     57  48  72 E14       30.05F
REGINA         PTCLDY    59  50  72 E17       30.15F
SASKATOON      CLEAR     55  48  76 E10       30.18S
CYPRESS HILLS    N/A     63  54  72 SE9         N/A
VAL MARIE        N/A     61  52  72 E9          N/A
ROCKGLEN         N/A     57  46  67 E5          N/A
ASSINIBOIA       N/A     57  46  67 E9          N/A
$$




USA.gov is the U.S. government's official web portal to all federal, state and local government web resources and services.